KD2SJF Weather Reports


time (UTC)temp
C
wind
direction
speed
KPH
gust
KPH
rain 1hr
cm
rain 24hr
cm
rain mn
cm
humidity
%
barometer
mb
20260506191549 13 177 12.9 22.5 0.00 1.65 1.55 88 1006.0
20260506190055 13 266 9.7 25.7 0.03 1.65 1.55 89 1006.1
20260506184549 13 211 9.7 19.3 0.05 1.65 1.55 90 1006.3
20260506183048 13 24 9.7 22.5 0.08 1.65 1.55 91 1006.2
20260506181549 13 219 8.0 22.5 0.13 1.65 1.55 91 1006.3
20260506180057 13 218 11.3 27.4 0.15 1.63 1.52 90 1006.5
20260506174549 13 221 11.3 25.7 0.20 1.60 1.47 90 1006.5
20260506173103 13 227 9.7 20.9 0.28 1.57 1.47 90 1006.5
20260506171552 13 202 6.4 19.3 0.41 1.52 1.42 90 1006.5
20260506170051 13 167 9.7 19.3 0.43 1.47 1.37 90 1006.6
20260506164554 12 184 6.4 20.9 0.41 1.40 1.30 90 1006.7
20260506163044 13 183 6.4 19.3 0.33 1.30 1.19 89 1006.7
20260506161552 13 248 3.2 17.7 0.18 1.09 0.99 87 1006.8
20260506160104 13 203 8.0 19.3 0.15 1.04 0.94 87 1006.7
20260506154609 13 167 6.4 14.5 0.15 0.99 0.89 87 1006.5
20260506153050 13 206 8.0 19.3 0.18 0.97 0.86 86 1006.9
20260506151550 13 165 8.0 22.5 0.18 0.91 0.81 86 1007.1
20260506150047 13 198 8.0 17.7 0.23 0.89 0.79 88 1007.2
20260506144552 13 193 4.8 20.9 0.25 0.84 0.74 88 1007.5
20260506143044 13 190 6.4 19.3 0.25 0.79 0.69 88 1007.5
20260506141605 13 195 6.4 25.7 0.23 0.74 0.64 88 1008.1
20260506140049 13 211 9.7 27.4 0.18 0.66 0.56 87 1008.1
20260506134546 12 184 8.0 17.7 0.13 0.58 0.48 88 1008.2
20260506133047 12 204 4.8 12.9 0.10 0.53 0.43 88 1008.2
20260506131554 12 195 0.0 11.3 0.13 0.51 0.41 88 1007.9
20260506130051 12 194 3.2 9.7 0.15 0.48 0.38 88 1007.9
20260506124544 12 178 1.6 6.4 0.20 0.46 0.36 88 1007.8
20260506123049 11 190 0.0 8.0 0.23 0.43 0.33 89 1008.0
20260506121600 11 183 4.8 9.7 0.20 0.38 0.28 89 1008.4
20260506120116 11 215 4.8 9.7 0.20 0.33 0.23 88 1008.6
20260506114549 12 193 4.8 12.9 0.15 0.25 0.15 87 1009.0
20260506113056 12 201 3.2 6.4 0.10 0.20 0.10 86 1008.8
20260506111549 12 0 6.4 16.1 0.08 0.18 0.08 82 1008.6
20260506110055 12 0 0.0 3.2 0.03 0.13 0.03 82 1008.4
20260506104550 13 0 0.0 3.2 0.00 0.10 0.00 78 1008.3
20260506103055 14 0 0.0 6.4 0.00 0.10 0.00 71 1008.1
20260506101550 14 0 0.0 8.0 0.00 0.10 0.00 71 1008.0
20260506100048 13 0 1.6 8.0 0.00 0.10 0.00 73 1007.9
20260506094554 13 0 0.0 8.0 0.00 0.25 0.00 79 1007.7
20260506093052 11 0 0.0 3.2 0.00 0.25 0.00 92 1007.8
20260506091544 10 0 0.0 3.2 0.00 0.25 0.00 93 1007.6
20260506090043 10 0 0.0 6.4 0.00 0.25 0.00 93 1007.6
20260506084549 10 0 1.6 9.7 0.00 0.46 0.00 93 1007.8
20260506083048 10 0 0.0 0.0 0.00 0.46 0.00 93 1008.1
20260506081550 10 0 0.0 4.8 0.00 0.46 0.00 92 1008.3
20260506073055 10 0 0.0 0.0 0.00 0.46 0.00 92 1008.8
20260506071553 10 0 0.0 0.0 0.00 0.46 0.00 92 1009.0
20260506070107 11 0 0.0 0.0 0.00 0.46 0.00 92 1009.1
20260506061550 11 0 0.0 0.0 0.00 0.46 0.00 92 1009.5
20260506044558 12 0 0.0 4.8 0.00 0.46 0.00 90 1010.2
20260506043051 12 360 1.6 9.7 0.00 0.46 0.00 90 1010.4
20260506041556 12 21 4.8 9.7 0.03 0.46 0.00 91 1010.4
20260506040051 12 51 1.6 6.4 0.03 0.46 0.00 90 1010.3
20260506034549 13 0 0.0 1.6 0.05 0.46 0.46 90 1010.3
20260506033048 13 229 0.0 6.4 0.05 0.46 0.46 89 1010.3
20260506031558 13 0 1.6 4.8 0.03 0.43 0.43 88 1010.0
20260506030109 13 0 0.0 6.4 0.03 0.43 0.43 87 1010.0
20260506024552 13 0 0.0 6.4 0.00 0.41 0.41 88 1010.1
20260506023056 13 230 3.2 8.0 0.00 0.41 0.41 87 1010.0
20260506021547 13 230 0.0 4.8 0.00 0.41 0.41 88 1010.1
20260506020051 13 0 0.0 3.2 0.00 0.41 0.41 86 1010.0
20260506014600 14 0 0.0 1.6 0.00 0.41 0.41 83 1010.0
20260506013058 14 0 0.0 3.2 0.00 0.41 0.41 83 1009.8
20260506011557 14 0 0.0 0.0 0.00 0.41 0.41 82 1009.4
20260506010058 14 0 0.0 1.6 0.00 0.41 0.41 82 1009.3
20260506004624 15 230 0.0 3.2 0.00 0.41 0.41 80 1009.2
20260506003049 14 0 0.0 3.2 0.00 0.41 0.41 82 1009.1
20260506001549 14 0 0.0 6.4 0.00 0.41 0.41 82 1009.0
20260506000048 14 0 0.0 3.2 0.00 0.41 0.41 82 1008.9
20260505234607 15 0 0.0 6.4 0.00 0.41 0.41 81 1009.0
20260505233048 15 281 1.6 9.7 0.00 0.41 0.41 79 1008.6
20260505231550 15 206 0.0 8.0 0.00 0.41 0.41 81 1008.4
20260505230051 15 244 4.8 14.5 0.00 0.41 0.41 79 1008.1
20260505224544 15 238 1.6 14.5 0.00 0.41 0.41 81 1008.2
20260505223058 14 0 1.6 8.0 0.03 0.41 0.41 84 1008.1
20260505221605 14 0 1.6 12.9 0.05 0.41 0.41 86 1008.2
20260505220119 13 169 6.4 16.1 0.05 0.41 0.41 84 1008.7
20260505214604 14 125 1.6 20.9 0.03 0.38 0.38 81 1008.8
20260505213047 15 0 1.6 17.7 0.03 0.38 0.38 79 1009.3
20260505211559 18 244 12.9 33.8 0.00 0.36 0.36 63 1009.1
20260505210046 22 183 6.4 30.6 0.00 0.36 0.36 35 1007.0
20260505204545 22 257 14.5 35.4 0.00 0.36 0.36 33 1006.3
20260505203049 22 192 16.1 37.0 0.00 0.36 0.36 32 1006.4
20260505201602 23 180 20.9 46.7 0.00 0.36 0.36 31 1006.0
20260505200100 23 211 17.7 48.3 0.00 0.36 0.36 33 1006.1
20260505194543 23 89 22.5 45.1 0.00 0.36 0.36 32 1006.0
20260505193049 23 187 19.3 43.5 0.00 0.36 0.36 32 1006.2